AU224 Weather Reports


time (UTC)temp
F
wind
direction
speed
knots
gust
knots
rain 1hr
in
rain 24hr
in
rain mn
in
humidity
%
barometer
mb
20260506181543 51 0 0.0 9.6 0.00 0.02 0.01 69 1005.8
20260506180054 51 0 0.9 13.9 0.00 0.02 0.01 69 1005.3
20260506174548 51 202 0.0 8.7 0.00 0.02 0.01 70 1005.3
20260506173121 51 0 2.6 11.3 0.00 0.02 0.01 70 1004.6
20260506171544 52 0 2.6 13.9 0.00 0.02 0.01 69 1004.4
20260506170047 52 259 6.1 16.5 0.00 0.02 0.01 68 1004.3
20260506164555 52 173 5.2 17.4 0.00 0.02 0.01 68 1004.2
20260506163058 53 360 6.1 17.4 0.00 0.02 0.01 67 1004.3
20260506161603 54 253 8.7 0.0 0.00 0.02 0.01 72 1004.1
20260506160047 54 0 4.3 13.9 0.00 0.02 0.01 73 1003.9
20260506154551 54 229 3.5 13.0 0.00 0.02 0.01 69 1003.9
20260506153056 61 16 7.0 32.2 0.00 0.02 0.01 57 1003.1
20260506151550 64 192 0.9 7.0 0.00 0.01 0.00 59 1002.2
20260506150046 64 169 0.9 7.8 0.00 0.01 0.00 60 1001.9
20260506144546 62 0 0.9 7.0 0.00 0.01 0.00 62 1002.1
20260506143045 60 0 0.0 3.5 0.00 0.01 0.00 67 1002.0
20260506141543 59 180 0.0 6.1 0.00 0.01 0.00 64 1002.2
20260506140049 60 232 2.6 7.8 0.00 0.01 0.00 66 1002.3
20260506134545 56 0 1.7 7.0 0.00 0.01 0.00 72 1002.7
20260506133047 59 179 0.9 5.2 0.00 0.01 0.00 66 1002.8
20260506131550 59 0 0.0 6.1 0.00 0.01 0.00 66 1002.4
20260506130058 59 0 0.0 0.0 0.00 0.00 0.00 60 1002.2
20260506124557 60 0 0.0 3.5 0.00 0.00 0.00 60 1001.9
20260506123048 61 0 0.0 3.5 0.00 0.00 0.00 58 1001.9
20260506121545 62 0 0.0 1.7 0.00 0.00 0.00 58 1002.0
20260506120049 62 58 0.0 6.1 0.00 0.00 0.00 57 1002.0
20260506114550 62 0 2.6 8.7 0.00 0.00 0.00 58 1002.0
20260506113051 62 0 0.0 6.1 0.00 0.00 0.00 57 1002.3
20260506111543 63 66 1.7 7.8 0.00 0.00 0.00 55 1002.4
20260506110055 63 0 0.0 5.2 0.00 0.00 0.00 55 1002.2
20260506104551 64 0 0.0 6.1 0.00 0.00 0.00 56 1002.6
20260506103050 63 0 0.0 4.3 0.00 0.00 0.00 55 1002.8
20260506101553 62 0 1.7 4.3 0.00 0.00 0.00 58 1003.1
20260506100104 62 360 0.0 5.2 0.00 0.00 0.00 60 1003.3
20260506094550 61 0 0.0 3.5 0.00 0.00 0.00 59 1003.1
20260506093046 60 0 0.0 3.5 0.00 0.00 0.00 62 1003.1
20260506091542 59 0 0.0 0.9 0.00 0.00 0.00 65 1003.3
20260506090045 59 0 0.0 2.6 0.00 0.00 0.00 61 1003.4
20260506084607 58 0 0.0 2.6 0.00 0.00 0.00 63 1003.3
20260506083046 58 0 0.0 2.6 0.00 0.00 0.00 63 1003.4
20260506081553 57 0 0.0 0.0 0.00 0.00 0.00 66 1003.4
20260506073051 56 0 0.0 0.0 0.00 0.00 0.00 67 1003.4
20260506071551 55 0 0.0 0.0 0.00 0.00 0.00 72 1003.6
20260506061548 53 0 0.0 1.7 0.00 0.00 0.00 76 1003.6
20260506044637 45 0 0.0 0.0 0.00 0.00 0.00 82 1003.9
20260506043043 46 0 0.0 0.0 0.00 0.00 0.00 82 1004.0
20260506041556 46 0 0.0 0.0 0.00 0.00 0.00 82 1004.1
20260506040051 46 0 0.0 0.0 0.00 0.00 0.00 83 1004.2
20260506034621 46 0 0.0 0.0 0.00 0.00 0.00 83 1004.3
20260506033045 46 0 0.0 0.0 0.00 0.00 0.00 83 1004.6
20260506031546 46 0 0.0 0.0 0.00 0.00 0.00 82 1004.6
20260506030049 45 0 0.0 0.0 0.00 0.00 0.00 82 1004.8
20260506024544 45 0 0.0 0.0 0.00 0.00 0.00 81 1004.9
20260506023108 45 0 0.0 0.0 0.00 0.00 0.00 80 1005.0
20260506021547 45 0 0.0 0.0 0.00 0.00 0.00 80 1005.1
20260506020051 46 0 0.0 0.0 0.00 0.00 0.00 79 1005.0
20260506014550 46 0 0.0 0.0 0.00 0.00 0.00 78 1005.2
20260506013049 46 0 0.0 0.0 0.00 0.00 0.00 78 1005.0
20260506011601 46 0 0.0 0.0 0.00 0.00 0.00 78 1005.2
20260506010059 47 0 0.0 0.0 0.00 0.00 0.00 77 1005.4
20260506004600 48 0 0.0 0.0 0.00 0.00 0.00 77 1005.3
20260506003103 48 0 0.0 0.0 0.00 0.00 0.00 77 1005.3
20260506001554 49 0 0.0 0.0 0.00 0.00 0.00 77 1005.4
20260506000051 49 0 0.0 0.0 0.00 0.00 0.00 77 1005.7
20260505234613 49 0 0.0 0.0 0.00 0.00 0.00 76 1005.8
20260505233042 50 0 0.0 0.0 0.00 0.00 0.00 76 1005.9
20260505231549 50 0 0.0 0.0 0.00 0.00 0.00 77 1005.9
20260505230050 51 0 0.0 0.0 0.00 0.00 0.00 78 1005.8
20260505224557 51 0 0.0 0.0 0.00 0.00 0.00 78 1006.0
20260505223051 51 0 0.0 3.5 0.00 0.00 0.00 78 1006.1
20260505221549 51 0 0.0 5.2 0.00 0.00 0.00 78 1006.0
20260505214554 52 187 0.9 4.3 0.00 0.00 0.00 77 1006.0
20260505213101 52 180 0.0 4.3 0.00 0.00 0.00 76 1006.1
20260505211554 53 0 0.0 6.1 0.00 0.00 0.00 75 1005.7
20260505210049 54 0 0.0 9.6 0.00 0.00 0.00 74 1005.7
20260505204548 55 0 1.7 9.6 0.00 0.00 0.00 74 1005.9
20260505203043 55 360 6.1 14.8 0.00 0.00 0.00 71 1005.9
20260505201545 56 184 3.5 12.2 0.00 0.00 0.00 71 1006.0
20260505200051 56 295 1.7 13.9 0.00 0.00 0.00 75 1006.0
20260505194549 56 0 1.7 8.7 0.00 0.00 0.00 74 1005.6
20260505193052 56 0 0.0 3.5 0.00 0.00 0.00 74 1005.3
20260505191556 56 0 0.0 0.0 0.00 0.00 0.00 73 1004.9
20260505190048 57 0 0.0 2.6 0.00 0.00 0.00 73 1004.8
20260505184543 57 0 0.0 3.5 0.00 0.00 0.00 73 1004.8
20260505183039 57 274 2.6 5.2 0.00 0.00 0.00 71 1004.6